Weather in Polichrono

Greece     40°00′57″N   23°31′27″E
temp.,
°C
wind,
m/s
gust,
m/s
humid.,
%
clouds,
%
prec.,
mm/h
press.,
hPa
HPBL,
m
13 may, thu
thu1300:00+16e23670 0.0 100878
03:00+16nnw11640 0.0 100760
06:00+15nnw12655 0.0 1007104
09:00+18nw22560 0.0 1008337
12:00+21wnw11550 0.0 1008558
15:00+23s23480 0.0 1007813
18:00+21sse565513 0.0 1006404
21:00+18se47775 0.0 1007204
14 may, fri
fri1400:00+17e238195 0.0 100857
03:00+17nw22790 0.0 100931
06:00+17wnw46830 0.0 1009177
09:00+19wnw45650 0.0 1011321
12:00+21wsw33510 0.0 1012553
15:00+23sw34413 0.0 1012803
18:00+23sse434585 0.0 1011470
21:00+19sse4868100 0.0 1011219
15 may, sat
sat1500:00+18se598097 0.0 1011202
03:00+17sse338181 0.0 101151
06:00+17ene2279100 0.0 101039
09:00+18ne2273100 0.0 1011259
12:00+20n2266100 0.0 1011445
15:00+21nw2353100 0.0 1010561
18:00+18s576717 0.1 1009345
21:00+16sse3475100 0.1 1008124
16 may, sun
sun1600:00+16sse007942 0.1 100848
03:00+16n127730 0.2 100891
06:00+17wnw457369 0.1 1008242
09:00+18nw57665 0.1 1009567
12:00+20wnw67575 0.0 1009587
15:00+22w465036 0.0 1008625
18:00+22w354714 0.0 1007437
21:00+19sw226329 0.0 100817
17 may, mon
mon1700:00+18sw22632 0.0 100912
03:00+18w22655 0.0 101019
06:00+18nw23705 0.0 101040
09:00+20wnw34590 0.0 1011221
12:00+23wnw34500 0.0 1012479
15:00+24ssw23441 0.0 1011708
18:00+24sse444638 0.0 1010416
21:00+20sse34695 0.0 101053